[[{"header":{"parameterUnit":"m.s-1","parameterCategory":2,"la1":30.2991,"la2":30.254,"lo1":-89.0895,"lo2":-89.0444,"dy":0.0017,"dx":0.0017,"nx":28,"ny":28,"refTime":"2023-08-27T09:00:00:Z","depth":"0","parameterNumber":2,"parameterNumberName":"U-component_of_CURRENTS"},"data":[0,0,0,0,0,0,0,0,0,0,0,0,0,0,0,0,0,0,0,0,0,0,0,0,0,0,0,0,0,0,0,0,0,0,0,0,0,0,0,0,0,0,0,0,0,0,0,0,0,0,0,0,0,0,0,0,0,0,0.3117,0.3117,0,0.3165,0.3166,0.3166,0.3172,0.3171,0.3171,0.317,0.3173,0.3173,0.3174,0,0,0,0,0,0,0,0,0,0,0,0,0,0.3023,0.3025,0.3116,0.3117,0.3118,0.3165,0.3166,0.3167,0.3172,0.3171,0.3171,0.317,0.3172,0.3173,0.3174,0,0,0,0,0,0,0,0,0,0,0,0,0,0.3067,0.3026,0.3116,0.3126,0.3128,0.3165,0.3166,0.3167,0.3172,0.3171,0.3171,0.317,0.3172,0.3173,0.3174,0.3193,0,0,0.3176,0.3176,0,0,0,0,0,0,0,0,0.3065,0.307,0.3124,0.3126,0.3127,0.3162,0.3134,0.3173,0.3172,0.3155,0.317,0.317,0.3165,0.3167,0.3178,0.3193,0.3193,0.3176,0.3177,0.3177,0.3177,0,0,0,0,0,0,0,0.3061,0.3068,0.3136,0.3125,0.3127,0.3127,0.3132,0.3142,0.3163,0.3156,0.3157,0.3163,0.3166,0.3177,0.3178,0.3193,0.3176,0.3177,0.3177,0.3178,0.325,0.3252,0,0,0,0,0,0,0.3057,0.3066,0.3134,0.3137,0.3094,0.3129,0.3135,0.3151,0.3164,0.3165,0.3164,0.3163,0.3176,0.3177,0.3178,0.3214,0.3177,0.3178,0.3178,0.3249,0.3251,0.3252,0,0,0,0,0,0,0.3055,0.3063,0.3132,0.3102,0.311,0.3131,0.315,0.3153,0.3167,0.3169,0.317,0.3175,0.3176,0.3177,0.32,0.3214,0.3178,0.3179,0.3247,0.325,0.3252,0.3279,0,0,0,0,0,0,0.3053,0.3063,0.3075,0.3102,0.3112,0.3165,0.315,0.3154,0.3172,0.3172,0.3179,0.3179,0.3175,0.3199,0.3201,0.3214,0.3179,0.3245,0.3248,0.3251,0.3276,0.3282,0.3286,0,0,0,0,0,0.3049,0.3068,0.3076,0.3084,0.3129,0.3167,0.3173,0.3184,0.3173,0.3191,0.3196,0.3179,0.3218,0.3201,0.3203,0.3216,0.3244,0.3247,0.3251,0.3274,0.328,0.3286,0,0,0,0,0,0,0.3033,0.3071,0.308,0.311,0.3141,0.3168,0.3184,0.3189,0.3208,0.3204,0.3198,0.3199,0.3227,0.3223,0.3205,0.3249,0.3228,0.3232,0.3245,0.3251,0.3256,0.3307,0.318,0,0,0,0,0,0.3037,0.3061,0.3098,0.3122,0.314,0.3163,0.3178,0.3189,0.3208,0.3215,0.3215,0.3223,0.3243,0.3247,0.3263,0.3284,0.3343,0.3296,0.3301,0.3305,0.335,0.346,0.348,0.3263,0.3263,0.3263,0,0,0.3033,0.306,0.3071,0.312,0.3143,0.3174,0.3171,0.3202,0.3222,0.3212,0.3232,0.3243,0.3256,0.3284,0.3295,0.328,0.3394,0.331,0.3313,0.3357,0.3466,0.3487,0.3507,0.3266,0.3265,0.3265,0,0,0.3036,0.3068,0.3088,0.312,0.3162,0.3185,0.3195,0.3227,0.3238,0.326,0.3266,0.3301,0.3298,0.3335,0.3346,0.3394,0.3423,0.3379,0.3441,0.3545,0.3565,0.3583,0.367,0.3696,0.3376,0.3376,0.3376,0,0.3029,0.3065,0.3099,0.3129,0.3159,0.319,0.3221,0.3242,0.3272,0.33,0.3266,0.3339,0.3333,0.3415,0.3426,0.3408,0.3471,0.3408,0.3555,0.3574,0.3592,0.3677,0.3705,0.3378,0.3377,0.3377,0.3377,0,0.3045,0.308,0.3098,0.3148,0.3186,0.3222,0.3262,0.3297,0.3302,0.3324,0.3395,0.3412,0.347,0.3456,0.3449,0.3574,0.3577,0.3551,0.354,0.3616,0.37,0.3729,0.338,0.3379,0.3379,0.3379,0,0,0.3015,0.3093,0.3098,0.3139,0.3204,0.3243,0.3291,0.3361,0.3421,0.3432,0.3521,0.3543,0.3578,0.36,0.361,0.3686,0.3837,0.3675,0.3679,0.3765,0.4077,0.4007,0.4031,0.3839,0.3845,0.3849,0.4079,0,0.3019,0.3081,0.3118,0.3185,0.3231,0.329,0.3343,0.341,0.3461,0.3553,0.3597,0.3675,0.3623,0.3674,0.3746,0.3832,0.3919,0.3779,0.399,0.3997,0.3929,0.4064,0.3872,0.4056,0.4107,0.4112,0.4116,0,0.3024,0.3073,0.3138,0.324,0.3266,0.3307,0.3441,0.3494,0.3624,0.3668,0.3768,0.3816,0.3952,0.3886,0.409,0.4007,0.4062,0.4105,0.4114,0.4072,0.3982,0.3993,0.4106,0.3986,0.416,0.4157,0.4153,0,0.3014,0.3091,0.315,0.3182,0.3294,0.3342,0.3405,0.353,0.3613,0.3774,0.3867,0.4004,0.4106,0.4208,0.4282,0.4215,0.4503,0.4414,0.4407,0.4401,0.4296,0.4271,0.4327,0.4583,0.4582,0.4582,0.4581,0,0.3024,0.3076,0.315,0.3193,0.3291,0.3352,0.3478,0.3567,0.3715,0.3829,0.394,0.4071,0.4197,0.435,0.4387,0.4507,0.4595,0.4481,0.4482,0.4294,0.4268,0.4202,0.4153,0.459,0.4588,0.4587,0.4585,0,0.3037,0.3073,0.3164,0.3265,0.3298,0.3378,0.3523,0.3609,0.3749,0.3919,0.3983,0.4186,0.4374,0.4492,0.468,0.4647,0.463,0.4766,0.4529,0.4498,0.4317,0.4276,0.4247,0.4126,0.4805,0.4805,0.4805,0,0.3062,0.3105,0.322,0.3267,0.3318,0.3425,0.3493,0.3625,0.3712,0.3968,0.4044,0.4293,0.4422,0.4689,0.4715,0.482,0.4663,0.4679,0.4503,0.4341,0.4299,0.4111,0.3997,0.4375,0.4372,0.4369,0.4366,0,0.3139,0.3174,0.325,0.3314,0.3381,0.3459,0.3552,0.3622,0.3767,0.3905,0.4073,0.4205,0.4461,0.449,0.464,0.4658,0.4437,0.462,0.4531,0.406,0.3788,0.3657,0.4182,0.4341,0.4343,0.4345,0.4347,0.4348,0.3215,0.3258,0.3314,0.3363,0.3419,0.3428,0.344,0.3534,0.3636,0.3767,0.3977,0.4096,0.4239,0.4415,0.4413,0.4288,0.4282,0.4142,0.414,0.3991,0.3762,0.4228,0.4323,0.4325,0.4327,0.4329,0.4331,0,0.3267,0.3281,0.334,0.3357,0.3337,0.3377,0.3417,0.3382,0.3409,0.3613,0.3737,0.3851,0.39,0.3977,0.3965,0.3832,0.3623,0.3733,0.3428,0.3365,0.3866,0.373,0.3603,0.3603,0.3603,0.3604,0.3604,0.3604,0.3307,0.3325,0.3301,0.3239,0.3222,0.3135,0.3106,0.3089,0.317,0.3225,0.3291,0.3424,0.3621,0.3703,0.3583,0.3492,0.3228,0.3079,0.31,0.3451,0.3487,0.352,0.338,0.3182,0.3182,0.2408,0.2403,0.2399]},{"header":{"parameterUnit":"m.s-1","parameterCategory":2,"la1":30.2991,"la2":30.254,"lo1":-89.0895,"lo2":-89.0444,"dy":0.0017,"dx":0.0017,"nx":28,"ny":28,"refTime":"2023-08-27T09:00:00:Z","depth":"0","parameterNumber":3,"parameterNumberName":"V-component_of_CURRENTS"},"data":[0,0,0,0,0,0,0,0,0,0,0,0,0,0,0,0,0,0,0,0,0,0,0,0,0,0,0,0,0,0,0,0,0,0,0,0,0,0,0,0,0,0,0,0,0,0,0,0,0,0,0,0,0,0,0,0,0,0,0.0219,0.0218,0,0.0168,0.0167,0.0166,0.0113,0.0112,0.0112,0.0111,-0.0027,-0.003,-0.0033,0,0,0,0,0,0,0,0,0,0,0,0,0,0.0206,0.0207,0.0219,0.0218,0.0218,0.0168,0.0167,0.0166,0.0113,0.0112,0.0112,0.0111,-0.0025,-0.0029,-0.0033,0,0,0,0,0,0,0,0,0,0,0,0,0,0.0187,0.0207,0.0219,0.0187,0.0184,0.0168,0.0167,0.0166,0.0113,0.0112,0.0112,0.0111,-0.0024,-0.0029,-0.0034,-0.0048,0,0,-0.0048,-0.005,0,0,0,0,0,0,0,0,0.0188,0.0187,0.0192,0.019,0.0186,0.0148,0.0112,0.0091,0.0113,0.0138,0.0111,0.0111,0.0026,0.0017,0.0007,-0.0054,-0.006,-0.0049,-0.0052,-0.0054,-0.0055,0,0,0,0,0,0,0,0.019,0.0189,0.0196,0.0192,0.0188,0.0154,0.0151,0.0108,0.0083,0.0135,0.0132,0.0131,0.0023,0.0012,0.0003,-0.0062,-0.0049,-0.0053,-0.0056,-0.0058,-0.0141,-0.0141,0,0,0,0,0,0,0.0206,0.0191,0.0198,0.0195,0.0188,0.0155,0.0151,0.0159,0.0085,0.0075,0.0131,0.0128,0.002,0.0009,-0.0002,-0.0002,-0.0054,-0.0058,-0.0061,-0.0142,-0.0141,-0.014,0,0,0,0,0,0,0.0206,0.0207,0.02,0.0193,0.019,0.0157,0.0165,0.0159,0.0149,0.0084,0.0071,0.013,0.0019,0.0005,-0.003,-0.0008,-0.006,-0.0065,-0.0143,-0.0142,-0.0141,-0.0015,0,0,0,0,0,0,0.0206,0.0208,0.0215,0.0194,0.0191,0.02,0.0166,0.0158,0.0151,0.0146,0.0078,0.0065,0.0017,-0.0022,-0.0035,-0.0016,-0.0068,-0.0144,-0.0142,-0.0141,-0.002,-0.001,-0.0001,0,0,0,0,0,0.0206,0.0228,0.0216,0.0217,0.0204,0.0201,0.0196,0.0167,0.0152,0.0155,0.0111,0.0067,-0.0024,-0.0025,-0.004,-0.0022,-0.0144,-0.0143,-0.0141,-0.0024,-0.0012,-0.0001,0,0,0,0,0,0,0.0228,0.0224,0.0211,0.023,0.0219,0.0193,0.0194,0.0176,0.0146,0.014,0.0075,0.0059,0.0033,-0.0012,-0.0012,-0.0044,-0.0091,-0.0093,0.0003,0.0014,0.0023,0.0077,-0.0072,0,0,0,0,0,0.0238,0.0253,0.0238,0.0254,0.025,0.0223,0.0217,0.0203,0.0176,0.0162,0.0115,0.0066,0.0028,0.0008,-0.0039,-0.0052,-0.0074,-0.0052,-0.0042,-0.0034,-0.0001,-0.0004,0.001,-0.0136,-0.0136,-0.0136,0,0,0.025,0.0252,0.0258,0.0259,0.0245,0.0255,0.0217,0.022,0.0234,0.015,0.0146,0.0093,0.003,0.0014,-0.0001,-0.0019,-0.001,-0.0032,-0.0024,0.0005,-0.0,0.0014,0.0027,-0.0135,-0.0135,-0.0135,0,0,0.0289,0.0284,0.0307,0.0304,0.0298,0.0285,0.0291,0.027,0.0264,0.0254,0.02,0.0175,0.0105,0.0082,0.0057,0.0092,0.0036,0.0061,0.016,0.0157,0.017,0.0181,0.0155,0.0163,0.0072,0.0073,0.0073,0,0.0301,0.0336,0.0312,0.0333,0.0348,0.0305,0.034,0.0324,0.0297,0.0314,0.0267,0.0216,0.0148,0.0163,0.0166,0.0118,0.0097,0.0125,0.0173,0.0184,0.0193,0.0164,0.0172,0.0079,0.0078,0.0078,0.0077,0,0.0355,0.0382,0.0397,0.0414,0.0421,0.0446,0.043,0.0439,0.0423,0.0412,0.0421,0.0344,0.0328,0.0289,0.0232,0.0269,0.0225,0.0183,0.0154,0.0216,0.018,0.0186,0.0088,0.0086,0.0084,0.0082,0,0,0.0395,0.043,0.0438,0.0481,0.0476,0.0506,0.0528,0.0561,0.0618,0.0562,0.0635,0.0548,0.0521,0.0492,0.0424,0.0412,0.0431,0.0333,0.033,0.0327,0.0413,0.0361,0.0361,0.0399,0.0401,0.0402,0.0357,0,0.0449,0.0531,0.0526,0.061,0.0657,0.0644,0.0687,0.0708,0.0711,0.076,0.0701,0.072,0.0594,0.0604,0.057,0.0474,0.0454,0.0447,0.0339,0.0336,0.0298,0.0369,0.0337,0.0294,0.0362,0.0363,0.0363,0,0.0511,0.0566,0.0664,0.0759,0.078,0.0821,0.0925,0.0956,0.099,0.0998,0.1,0.0947,0.0924,0.081,0.0697,0.0698,0.0574,0.0485,0.048,0.0402,0.0296,0.0243,0.03,0.0101,0.0371,0.037,0.037,0,0.0597,0.0674,0.0774,0.0798,0.0878,0.0943,0.0988,0.104,0.111,0.1162,0.1222,0.1163,0.1159,0.1017,0.0806,0.0763,0.0677,0.0591,0.0429,0.0422,0.0361,0.0346,0.0235,0.0527,0.0527,0.0527,0.0528,0,0.0684,0.077,0.083,0.0895,0.104,0.1052,0.1205,0.1246,0.1324,0.1436,0.136,0.1432,0.1212,0.1121,0.0904,0.0696,0.075,0.0477,0.0426,0.0399,0.0389,0.0183,0.0077,0.0526,0.0526,0.0526,0.0527,0,0.079,0.0817,0.0948,0.1051,0.1092,0.1205,0.134,0.1442,0.1503,0.1651,0.168,0.1646,0.1529,0.1291,0.1063,0.0836,0.051,0.0537,0.0509,0.0456,0.0105,0.0007,-0.0143,-0.0234,0.0364,0.0362,0.0361,0,0.0867,0.0937,0.1073,0.115,0.1208,0.1351,0.1449,0.1533,0.1637,0.1784,0.1866,0.1816,0.1797,0.1447,0.1047,0.0693,0.0484,0.0416,0.0325,0.0115,-0.0033,-0.0108,-0.0179,0.0278,0.0277,0.0275,0.0274,0,0.1015,0.1051,0.1153,0.1291,0.1408,0.1553,0.1693,0.1804,0.1914,0.2041,0.2173,0.2182,0.1857,0.1496,0.1004,0.073,0.0274,0.0376,0.0177,-0.0073,-0.0179,-0.0301,0.0258,0.0262,0.0264,0.0264,0.0265,0.0266,0.1126,0.1207,0.1302,0.144,0.1569,0.1728,0.1858,0.1998,0.2185,0.238,0.2378,0.2417,0.1886,0.1217,0.0852,0.0148,0.0169,-0.0081,-0.0173,-0.0223,-0.033,0.02,0.0132,0.0133,0.0133,0.0133,0.0134,0,0.1228,0.1295,0.1432,0.1588,0.173,0.1781,0.1995,0.2123,0.2334,0.2504,0.2616,0.2334,0.1717,0.107,0.0134,-0.032,-0.0483,-0.0561,-0.0679,-0.072,-0.0235,-0.0258,-0.0435,-0.0435,-0.0435,-0.0435,-0.0434,-0.0434,0.1285,0.14,0.145,0.168,0.1794,0.1989,0.2113,0.2311,0.246,0.2624,0.2613,0.257,0.2025,0.0477,-0.0583,-0.0826,-0.1091,-0.1166,-0.1281,-0.0972,-0.0935,-0.0899,-0.0946,-0.1264,-0.1265,-0.1732,-0.1737,-0.1741]}],[{"header":{"parameterUnit":"m.s-1","parameterCategory":2,"la1":30.2991,"la2":30.254,"lo1":-89.0895,"lo2":-89.0444,"dy":0.0017,"dx":0.0017,"nx":28,"ny":28,"refTime":"2023-08-27T09:00:00:Z","depth":"2","parameterNumber":2,"parameterNumberName":"U-component_of_CURRENTS"},"data":[0,0,0,0,0,0,0,0,0,0,0,0,0,0,0,0,0,0,0,0,0,0,0,0,0,0,0,0,0,0,0,0,0,0,0,0,0,0,0,0,0,0,0,0,0,0,0,0,0,0,0,0,0,0,0,0,0,0,0.2732,0.2733,0,0.2784,0.2785,0.2785,0.2813,0.2813,0.2813,0.2813,0.2822,0.2822,0.2823,0,0,0,0,0,0,0,0,0,0,0,0,0,0.2638,0.264,0.2732,0.2733,0.2733,0.2784,0.2785,0.2785,0.2813,0.2813,0.2813,0.2813,0.2822,0.2822,0.2823,0,0,0,0,0,0,0,0,0,0,0,0,0,0.2682,0.264,0.2732,0.2754,0.2757,0.2784,0.2785,0.2786,0.2812,0.2813,0.2813,0.2813,0.2822,0.2822,0.2823,0.2819,0,0,0.2823,0.2823,0,0,0,0,0,0,0,0,0.268,0.2686,0.275,0.2753,0.2756,0.2793,0.2755,0.2795,0.2812,0.279,0.2813,0.2813,0.2809,0.2811,0.2819,0.2819,0.282,0.2823,0.2823,0.2823,0.2823,0,0,0,0,0,0,0,0.2677,0.2684,0.2751,0.2751,0.2754,0.2756,0.2762,0.2763,0.2796,0.2792,0.2794,0.2802,0.281,0.2819,0.2819,0.282,0.2823,0.2823,0.2823,0.2823,0.289,0.2892,0,0,0,0,0,0,0.2674,0.2681,0.275,0.2753,0.2719,0.2757,0.2765,0.278,0.2797,0.28,0.2802,0.2803,0.2818,0.2819,0.2819,0.2867,0.2823,0.2823,0.2824,0.2888,0.289,0.2892,0,0,0,0,0,0,0.2672,0.268,0.2748,0.2718,0.2727,0.2759,0.2776,0.2781,0.2806,0.2805,0.2808,0.2823,0.2818,0.2819,0.2839,0.2865,0.2824,0.2824,0.2886,0.2889,0.2891,0.2929,0,0,0,0,0,0,0.2669,0.2679,0.27,0.2719,0.2729,0.2777,0.2776,0.2782,0.281,0.2812,0.2824,0.2824,0.2819,0.2839,0.2839,0.2865,0.2824,0.2884,0.2888,0.2891,0.2925,0.2932,0.2938,0,0,0,0,0,0.2666,0.2692,0.2701,0.271,0.2754,0.2777,0.2783,0.2805,0.2811,0.2827,0.2836,0.2825,0.286,0.284,0.284,0.2866,0.2883,0.2887,0.289,0.2922,0.2931,0.2938,0,0,0,0,0,0,0.2662,0.2698,0.2708,0.2745,0.2765,0.2783,0.2803,0.2814,0.2836,0.2842,0.2837,0.2839,0.2866,0.2865,0.2843,0.2898,0.2873,0.2877,0.2897,0.2905,0.2911,0.2941,0.2824,0,0,0,0,0,0.2671,0.27,0.2727,0.2754,0.2767,0.2787,0.2804,0.2818,0.2834,0.2846,0.2854,0.2867,0.288,0.2891,0.2898,0.2924,0.296,0.2946,0.2952,0.2957,0.2984,0.3081,0.3099,0.2905,0.2905,0.2905,0,0,0.2674,0.2699,0.2715,0.2756,0.2772,0.2798,0.2798,0.2828,0.2851,0.2841,0.2877,0.2884,0.289,0.292,0.2934,0.2924,0.3026,0.2962,0.2966,0.2991,0.3087,0.3106,0.3123,0.2907,0.2907,0.2906,0,0,0.2679,0.2718,0.2738,0.2761,0.2796,0.2817,0.283,0.2859,0.2876,0.2899,0.2909,0.2939,0.2945,0.2973,0.2981,0.3029,0.3052,0.3032,0.3093,0.3186,0.3203,0.3219,0.3263,0.3283,0.3041,0.3041,0.3041,0,0.2687,0.2717,0.2746,0.2769,0.2796,0.2828,0.2854,0.2876,0.291,0.2935,0.2913,0.2978,0.2972,0.304,0.3057,0.3044,0.3094,0.3056,0.3196,0.3212,0.3227,0.327,0.3291,0.3044,0.3043,0.3043,0.3043,0,0.2693,0.2732,0.2746,0.2793,0.2824,0.2857,0.2892,0.293,0.2949,0.2973,0.3034,0.3042,0.3096,0.3091,0.3081,0.3196,0.3193,0.3186,0.3176,0.325,0.3289,0.331,0.3047,0.3046,0.3045,0.3045,0,0,0.2686,0.2743,0.2752,0.2784,0.2847,0.2876,0.2925,0.2987,0.3048,0.3066,0.3147,0.3158,0.3195,0.3211,0.3225,0.3294,0.3417,0.3297,0.3301,0.3341,0.3613,0.3498,0.3509,0.3451,0.3455,0.3459,0.3587,0,0.269,0.2741,0.2768,0.2831,0.2869,0.2922,0.2973,0.3034,0.3087,0.3176,0.3206,0.3283,0.3234,0.3288,0.3349,0.341,0.3481,0.3382,0.3538,0.3542,0.3431,0.3533,0.3257,0.334,0.3608,0.3611,0.3614,0,0.2692,0.2735,0.279,0.2877,0.2898,0.2942,0.3063,0.312,0.3241,0.3283,0.3372,0.3414,0.3522,0.3475,0.3617,0.3566,0.3607,0.3633,0.3639,0.3541,0.3468,0.3317,0.3369,0.3649,0.3647,0.3644,0.3642,0,0.2687,0.2756,0.2808,0.2836,0.2932,0.2974,0.3044,0.3159,0.3231,0.3397,0.3473,0.3583,0.3673,0.3742,0.377,0.3733,0.392,0.387,0.3798,0.3788,0.3588,0.3553,0.4,0.4,0.3999,0.3999,0.3999,0,0.2695,0.2743,0.2813,0.2848,0.2935,0.2997,0.312,0.3202,0.3341,0.3443,0.3554,0.3645,0.3758,0.3852,0.3855,0.3887,0.3991,0.3841,0.3836,0.3587,0.3552,0.3847,0.3827,0.4004,0.4003,0.4002,0.4001,0,0.2698,0.2733,0.2814,0.2909,0.2937,0.3019,0.3158,0.3267,0.3382,0.353,0.3593,0.3749,0.3864,0.3932,0.4059,0.3995,0.4032,0.4019,0.3692,0.3646,0.3813,0.3794,0.3963,0.396,0.3958,0.3956,0.3955,0,0.2713,0.2752,0.286,0.2924,0.2973,0.3087,0.3183,0.3293,0.3387,0.3556,0.3622,0.3792,0.3852,0.3978,0.3943,0.3953,0.4027,0.3699,0.3565,0.3843,0.3821,0.3805,0.379,0.3307,0.33,0.3295,0.3291,0,0.2752,0.2791,0.2847,0.2979,0.3076,0.3168,0.3279,0.3309,0.3436,0.3518,0.3591,0.3647,0.3774,0.3658,0.3699,0.3653,0.3665,0.3585,0.4022,0.3344,0.3231,0.3207,0.3213,0.3242,0.3247,0.325,0.3253,0.3255,0.2794,0.2847,0.2924,0.3023,0.3125,0.3171,0.3182,0.3267,0.3305,0.3286,0.3418,0.3381,0.3426,0.3317,0.3231,0.3185,0.3414,0.3267,0.3282,0.3303,0.319,0.3078,0.3037,0.304,0.3043,0.3046,0.3049,0,0.2827,0.2874,0.2976,0.303,0.3047,0.315,0.3191,0.3112,0.3054,0.3086,0.3066,0.2793,0.2747,0.2804,0.2659,0.2658,0.2611,0.2559,0.248,0.2532,0.2578,0.2424,0.207,0.2067,0.2063,0.206,0,0,0.2862,0.2917,0.2928,0.2894,0.2932,0.2909,0.2888,0.2769,0.2723,0.253,0.2465,0.2584,0.2719,0.2338,0.231,0.2171,0.2323,0.2089,0.2886,0.2846,0.2886,0.3013,0.2839,0,0,0,0,0]},{"header":{"parameterUnit":"m.s-1","parameterCategory":2,"la1":30.2991,"la2":30.254,"lo1":-89.0895,"lo2":-89.0444,"dy":0.0017,"dx":0.0017,"nx":28,"ny":28,"refTime":"2023-08-27T09:00:00:Z","depth":"2","parameterNumber":3,"parameterNumberName":"V-component_of_CURRENTS"},"data":[0,0,0,0,0,0,0,0,0,0,0,0,0,0,0,0,0,0,0,0,0,0,0,0,0,0,0,0,0,0,0,0,0,0,0,0,0,0,0,0,0,0,0,0,0,0,0,0,0,0,0,0,0,0,0,0,0,0,0.0047,0.0047,0,0.0005,0.0004,0.0004,-0.0038,-0.0038,-0.0039,-0.0039,-0.0168,-0.0171,-0.0174,0,0,0,0,0,0,0,0,0,0,0,0,0,0.0027,0.0028,0.0047,0.0047,0.0047,0.0005,0.0004,0.0004,-0.0038,-0.0038,-0.0039,-0.0039,-0.0167,-0.017,-0.0174,0,0,0,0,0,0,0,0,0,0,0,0,0,0.0013,0.0028,0.0047,0.0023,0.002,0.0005,0.0004,0.0003,-0.0038,-0.0038,-0.0039,-0.0039,-0.0165,-0.017,-0.0175,-0.0194,0,0,-0.0189,-0.0191,0,0,0,0,0,0,0,0,0.0014,0.0014,0.0027,0.0025,0.0022,-0.001,-0.005,-0.0066,-0.0038,-0.0018,-0.0039,-0.0039,-0.0121,-0.0129,-0.0138,-0.02,-0.0205,-0.0189,-0.0192,-0.0194,-0.0195,0,0,0,0,0,0,0,0.0015,0.0015,0.0028,0.0027,0.0023,-0.0008,-0.0011,-0.0053,-0.007,-0.002,-0.0022,-0.0023,-0.0123,-0.0133,-0.0142,-0.0207,-0.0189,-0.0193,-0.0196,-0.0198,-0.0289,-0.0289,0,0,0,0,0,0,0.0029,0.0017,0.003,0.0027,0.0019,-0.0007,-0.001,-0.0001,-0.0067,-0.0077,-0.0023,-0.0025,-0.0125,-0.0136,-0.0147,-0.0157,-0.0194,-0.0198,-0.0201,-0.029,-0.0289,-0.0289,0,0,0,0,0,0,0.0029,0.0031,0.0031,0.0022,0.002,-0.0006,0.0004,-0.0001,-0.0008,-0.0068,-0.008,-0.0023,-0.0126,-0.014,-0.0177,-0.0163,-0.0201,-0.0205,-0.029,-0.0289,-0.0289,-0.0188,0,0,0,0,0,0,0.0029,0.0032,0.004,0.0023,0.0021,0.003,0.0005,-0.0002,-0.0007,-0.001,-0.0072,-0.0085,-0.0128,-0.0169,-0.0181,-0.017,-0.0209,-0.0291,-0.029,-0.0289,-0.0192,-0.0184,-0.0177,0,0,0,0,0,0.0029,0.0051,0.0041,0.0043,0.0035,0.0031,0.0026,0.0004,-0.0006,-0.0005,-0.0045,-0.0083,-0.0173,-0.0173,-0.0187,-0.0176,-0.0291,-0.029,-0.0289,-0.0195,-0.0185,-0.0177,0,0,0,0,0,0,0.0046,0.0048,0.0038,0.0059,0.0047,0.0025,0.0026,0.0012,-0.0017,-0.002,-0.008,-0.0095,-0.0124,-0.0165,-0.0162,-0.0202,-0.0238,-0.024,-0.0161,-0.0153,-0.0146,-0.0116,-0.0212,0,0,0,0,0,0.0055,0.0073,0.006,0.0077,0.0073,0.005,0.0045,0.0034,0.0009,-0.0004,-0.0045,-0.0091,-0.0131,-0.0152,-0.0197,-0.0217,-0.0253,-0.022,-0.0213,-0.0206,-0.0192,-0.0219,-0.0212,-0.0286,-0.0286,-0.0286,0,0,0.0066,0.0071,0.0079,0.0082,0.0069,0.0076,0.0045,0.0048,0.0057,-0.0015,-0.0022,-0.0071,-0.0133,-0.0154,-0.017,-0.0185,-0.0209,-0.0205,-0.0199,-0.0188,-0.0217,-0.021,-0.0203,-0.0285,-0.0285,-0.0286,0,0,0.0099,0.01,0.0122,0.0117,0.0112,0.0101,0.0107,0.0089,0.0082,0.0068,0.002,-0.0012,-0.0075,-0.0107,-0.0135,-0.0115,-0.0172,-0.0134,-0.0069,-0.0095,-0.0088,-0.0083,-0.0135,-0.0135,-0.0126,-0.0126,-0.0126,0,0.0111,0.014,0.0125,0.0141,0.0149,0.0118,0.0141,0.0129,0.0104,0.0106,0.0077,0.0006,-0.005,-0.0067,-0.0061,-0.0097,-0.0128,-0.0094,-0.0083,-0.0078,-0.0075,-0.0129,-0.013,-0.0121,-0.0121,-0.0122,-0.0122,0,0.0152,0.0175,0.0188,0.0202,0.0205,0.0223,0.0208,0.0213,0.0198,0.0183,0.0164,0.0094,0.006,0.0031,-0.0011,-0.001,-0.0048,-0.0072,-0.0098,-0.0061,-0.0121,-0.0124,-0.0114,-0.0115,-0.0117,-0.0118,0,0,0.0191,0.0214,0.0222,0.0246,0.0245,0.0261,0.0277,0.0289,0.0318,0.0271,0.0298,0.0219,0.0189,0.0157,0.0101,0.0073,0.0058,0.0022,0.0019,-0.0016,-0.0014,-0.0054,-0.0062,0.0043,0.0043,0.0043,-0.0071,0,0.0231,0.0289,0.0285,0.034,0.0369,0.0355,0.0383,0.0388,0.0379,0.0394,0.0327,0.0324,0.0235,0.0235,0.0189,0.0099,0.0057,0.009,-0.0056,-0.006,-0.0089,-0.0064,-0.0028,-0.0127,-0.0075,-0.0076,-0.0076,0,0.0277,0.0315,0.0381,0.0435,0.0448,0.0476,0.0531,0.0555,0.0556,0.0551,0.0524,0.047,0.0422,0.0351,0.0206,0.0234,0.0123,0.0039,0.0032,-0.0038,-0.0105,-0.0155,-0.0135,-0.0082,-0.0082,-0.0081,-0.0081,0,0.0333,0.0388,0.0453,0.0467,0.0515,0.0553,0.0588,0.0609,0.0652,0.0668,0.0692,0.0607,0.0592,0.0444,0.0255,0.0242,0.0091,0.0047,-0.0104,-0.011,-0.0124,-0.0131,-0.005,-0.005,-0.005,-0.005,-0.0049,0,0.0387,0.044,0.0491,0.0528,0.0622,0.0635,0.0739,0.0753,0.0799,0.0864,0.079,0.0809,0.0621,0.0502,0.0307,0.0093,0.0124,-0.0086,-0.0132,-0.0092,-0.0094,-0.0089,-0.0092,-0.0054,-0.0053,-0.0052,-0.0051,0,0.0433,0.0465,0.0548,0.0621,0.0651,0.0729,0.0838,0.0925,0.0945,0.1028,0.1044,0.0973,0.083,0.0602,0.037,0.0179,-0.0034,-0.0122,-0.0076,-0.0114,-0.0238,-0.0235,-0.0299,-0.0301,-0.0302,-0.0304,-0.0305,0,0.0466,0.0512,0.0618,0.0675,0.0712,0.0829,0.0931,0.1001,0.1083,0.112,0.1165,0.1067,0.1,0.0635,0.031,-0.0028,-0.0062,-0.0219,-0.0241,-0.022,-0.0259,-0.0252,-0.0247,-0.0235,-0.0236,-0.0237,-0.0237,0,0.0504,0.0542,0.0599,0.0731,0.0846,0.0978,0.1104,0.1176,0.1267,0.1344,0.137,0.1319,0.0998,0.0685,0.0245,0.0015,-0.0162,-0.0241,-0.0213,-0.0173,-0.0169,-0.0204,-0.0199,-0.0241,-0.0241,-0.024,-0.024,-0.024,0.0525,0.0561,0.0636,0.0755,0.0922,0.1067,0.1185,0.1319,0.1457,0.1527,0.1474,0.142,0.1079,0.0517,0.0154,-0.0209,-0.0207,-0.0341,-0.0336,-0.0331,-0.0298,-0.0296,-0.0389,-0.0389,-0.0389,-0.039,-0.039,0,0.0496,0.0536,0.0646,0.0782,0.0964,0.1067,0.1273,0.1386,0.1569,0.1615,0.1636,0.1277,0.094,0.0562,0.0024,-0.0316,-0.0326,-0.0415,-0.0345,-0.0339,-0.0334,-0.0298,-0.039,-0.0391,-0.0392,-0.0393,0,0,0.0477,0.0503,0.0542,0.0754,0.0918,0.1127,0.1268,0.1473,0.1571,0.1623,0.1602,0.148,0.1044,0.0648,0.0208,-0.0079,-0.0133,-0.0143,-0.0109,0.0032,0.0042,-0.0261,-0.0196,0,0,0,0,0]}],[{"header":{"parameterUnit":"m.s-1","parameterCategory":2,"la1":30.2991,"la2":30.254,"lo1":-89.0895,"lo2":-89.0444,"dy":0.0017,"dx":0.0017,"nx":28,"ny":28,"refTime":"2023-08-27T09:00:00:Z","depth":"4","parameterNumber":2,"parameterNumberName":"U-component_of_CURRENTS"},"data":[0,0,0,0,0,0,0,0,0,0,0,0,0,0,0,0,0,0,0,0,0,0,0,0,0,0,0,0,0,0,0,0,0,0,0,0,0,0,0,0,0,0,0,0,0,0,0,0,0,0,0,0,0,0,0,0,0,0,0.1494,0.1494,0,0.1549,0.1549,0.1549,0.1597,0.1598,0.1599,0.16,0.1699,0.1701,0.1703,0,0,0,0,0,0,0,0,0,0,0,0,0,0.1397,0.1398,0.1493,0.1494,0.1495,0.1549,0.1549,0.155,0.1597,0.1598,0.1599,0.16,0.1698,0.1701,0.1703,0,0,0,0,0,0,0,0,0,0,0,0,0,0.1441,0.1398,0.1493,0.1528,0.1532,0.1549,0.1549,0.155,0.1597,0.1598,0.1599,0.16,0.1698,0.17,0.1703,0.1694,0,0,0.1712,0.1713,0,0,0,0,0,0,0,0,0.1438,0.1444,0.1522,0.1526,0.153,0.157,0.1552,0.1601,0.1596,0.1568,0.16,0.1601,0.1661,0.1667,0.1669,0.1699,0.1703,0.1712,0.1713,0.1715,0.1715,0,0,0,0,0,0,0,0.1435,0.1441,0.1512,0.1523,0.1528,0.153,0.1538,0.1561,0.1605,0.1571,0.1575,0.1587,0.1664,0.1666,0.1672,0.1705,0.1712,0.1714,0.1716,0.1717,0.1865,0.1867,0,0,0,0,0,0,0.1436,0.1439,0.151,0.1514,0.149,0.1531,0.154,0.1553,0.1604,0.1614,0.1586,0.1589,0.1661,0.1669,0.1676,0.1779,0.1715,0.1717,0.1719,0.1862,0.1865,0.1868,0,0,0,0,0,0,0.1433,0.1442,0.1508,0.148,0.1489,0.1532,0.1547,0.1554,0.1593,0.1615,0.1625,0.1622,0.1662,0.1672,0.1739,0.1779,0.1718,0.1721,0.186,0.1863,0.1866,0.1914,0,0,0,0,0,0,0.143,0.144,0.1453,0.148,0.1491,0.1539,0.1546,0.1554,0.1597,0.1603,0.1649,0.1658,0.1664,0.1735,0.1742,0.1782,0.1723,0.1857,0.1861,0.1865,0.191,0.1919,0.1926,0,0,0,0,0,0.1427,0.1437,0.1453,0.1462,0.1506,0.1541,0.1546,0.1578,0.1598,0.1617,0.1662,0.1658,0.1767,0.1739,0.1747,0.1788,0.1855,0.186,0.1865,0.1906,0.1917,0.1926,0,0,0,0,0,0,0.1408,0.1444,0.1462,0.1486,0.1522,0.1551,0.1577,0.1597,0.1644,0.1665,0.1684,0.1695,0.1766,0.1775,0.1744,0.1846,0.1812,0.1818,0.184,0.1851,0.1859,0.1869,0.1725,0,0,0,0,0,0.1407,0.1428,0.1465,0.1491,0.1515,0.1553,0.1574,0.1599,0.1642,0.1664,0.1703,0.1748,0.1785,0.1818,0.1848,0.1904,0.1913,0.1938,0.1946,0.1953,0.1969,0.2019,0.2033,0.1884,0.1884,0.1884,0,0,0.1411,0.1433,0.1447,0.1489,0.1525,0.1558,0.157,0.162,0.166,0.1668,0.175,0.1778,0.1806,0.1869,0.1902,0.1888,0.2,0.196,0.1965,0.1977,0.2026,0.204,0.2053,0.1888,0.1887,0.1887,0,0,0.1422,0.1453,0.1473,0.1502,0.1559,0.1583,0.1607,0.1662,0.1707,0.1773,0.1795,0.1854,0.1914,0.1945,0.1964,0.204,0.2038,0.2055,0.2112,0.2161,0.2173,0.2184,0.2204,0.2216,0.2065,0.2065,0.2065,0,0.1421,0.1455,0.1487,0.1514,0.155,0.16,0.164,0.1682,0.1756,0.1808,0.1813,0.1926,0.1948,0.2024,0.2055,0.2058,0.208,0.2065,0.217,0.2181,0.2192,0.221,0.2223,0.2068,0.2068,0.2067,0.2067,0,0.1444,0.1478,0.1501,0.1552,0.1591,0.1638,0.1701,0.1764,0.1825,0.1871,0.1977,0.2012,0.2085,0.2097,0.2101,0.2193,0.2181,0.2167,0.2138,0.2209,0.2224,0.2237,0.2072,0.2071,0.207,0.2069,0,0,0.1417,0.15,0.1507,0.1548,0.1621,0.1658,0.1743,0.1835,0.1906,0.1982,0.2075,0.2145,0.2184,0.221,0.2227,0.2269,0.2351,0.2262,0.2263,0.2271,0.2453,0.2295,0.2293,0.2361,0.2364,0.2366,0.2429,0,0.1431,0.1487,0.1529,0.1602,0.1646,0.1721,0.1786,0.1877,0.1968,0.2067,0.2137,0.2223,0.2221,0.2268,0.2316,0.2349,0.239,0.2335,0.2393,0.2394,0.2237,0.2304,0.2375,0.2438,0.2441,0.2443,0.2444,0,0.1435,0.1475,0.1546,0.1643,0.1672,0.1725,0.1864,0.1931,0.207,0.214,0.2249,0.2307,0.241,0.2381,0.2487,0.2458,0.2472,0.2477,0.248,0.2327,0.226,0.2358,0.2467,0.2465,0.2463,0.2462,0.2461,0,0.1404,0.149,0.1556,0.1585,0.1692,0.1763,0.1835,0.1968,0.2042,0.2208,0.2283,0.2401,0.2472,0.2526,0.2565,0.2546,0.2649,0.2616,0.2481,0.2469,0.2569,0.2557,0.2683,0.2683,0.2683,0.2682,0.2682,0,0.139,0.1439,0.1555,0.1586,0.1665,0.176,0.187,0.1959,0.2095,0.2175,0.2329,0.2403,0.2517,0.2591,0.2605,0.2583,0.269,0.2504,0.2483,0.2586,0.2575,0.2577,0.2564,0.2685,0.2684,0.2684,0.2683,0,0.1324,0.141,0.1474,0.1601,0.1652,0.1707,0.1862,0.192,0.2085,0.2197,0.2257,0.2432,0.2529,0.261,0.2684,0.2613,0.2615,0.2575,0.2683,0.2665,0.2391,0.2381,0.2433,0.2428,0.2424,0.2421,0.2418,0,0.1289,0.1318,0.1452,0.1474,0.1536,0.1645,0.1699,0.1884,0.1951,0.2187,0.2216,0.2389,0.2484,0.2477,0.2564,0.2583,0.2548,0.2524,0.2455,0.2396,0.2371,0.2367,0.2361,0.2411,0.241,0.2409,0.2408,0,0.1181,0.1241,0.128,0.1338,0.1411,0.149,0.1607,0.1657,0.1861,0.2034,0.2136,0.2214,0.2313,0.2375,0.2406,0.2412,0.2529,0.248,0.2488,0.2423,0.237,0.2348,0.2348,0.2394,0.2396,0.2397,0.2398,0,0.1079,0.1064,0.1119,0.117,0.1243,0.1302,0.1406,0.1507,0.1623,0.1901,0.1921,0.212,0.2275,0.2287,0.2318,0.2316,0.2277,0.2188,0.221,0.2227,0.2131,0.2031,0.1946,0,0,0,0,0,0.0952,0.0921,0.0935,0.0998,0.1067,0.1144,0.1305,0.1421,0.1658,0.1669,0.1799,0.189,0.1979,0.2082,0.2038,0.2213,0.2269,0.2149,0.2172,0.2315,0.2331,0.2237,0,0,0,0,0,0,0.0864,0.0846,0.0874,0.085,0.0871,0.0963,0.1079,0.1245,0.1288,0.1521,0.1586,0.1753,0.1869,0.1973,0.1991,0.2018,0.1988,0.227,0.2264,0.2305,0.232,0.2334,0.2243,0,0,0,0,0]},{"header":{"parameterUnit":"m.s-1","parameterCategory":2,"la1":30.2991,"la2":30.254,"lo1":-89.0895,"lo2":-89.0444,"dy":0.0017,"dx":0.0017,"nx":28,"ny":28,"refTime":"2023-08-27T09:00:00:Z","depth":"4","parameterNumber":3,"parameterNumberName":"V-component_of_CURRENTS"},"data":[0,0,0,0,0,0,0,0,0,0,0,0,0,0,0,0,0,0,0,0,0,0,0,0,0,0,0,0,0,0,0,0,0,0,0,0,0,0,0,0,0,0,0,0,0,0,0,0,0,0,0,0,0,0,0,0,0,0,0.0033,0.0033,0,0.0008,0.0007,0.0007,-0.0018,-0.0018,-0.0018,-0.0018,-0.0106,-0.0109,-0.0111,0,0,0,0,0,0,0,0,0,0,0,0,0,0.0013,0.0014,0.0033,0.0033,0.0033,0.0008,0.0007,0.0007,-0.0018,-0.0018,-0.0018,-0.0018,-0.0106,-0.0108,-0.0111,0,0,0,0,0,0,0,0,0,0,0,0,0,0.0007,0.0014,0.0033,0.0018,0.0017,0.0008,0.0007,0.0007,-0.0018,-0.0018,-0.0018,-0.0018,-0.0105,-0.0108,-0.0111,-0.0125,0,0,-0.0121,-0.0122,0,0,0,0,0,0,0,0,0.0008,0.0008,0.0021,0.0019,0.0018,-0.0001,-0.0032,-0.004,-0.0017,-0.0006,-0.0018,-0.0019,-0.0076,-0.0082,-0.0087,-0.0129,-0.0133,-0.0121,-0.0123,-0.0125,-0.0126,0,0,0,0,0,0,0,0.0008,0.0009,0.0022,0.0021,0.0019,-0.0003,-0.0004,-0.0034,-0.0041,-0.0007,-0.0008,-0.0009,-0.0078,-0.0083,-0.0089,-0.0134,-0.0121,-0.0124,-0.0126,-0.0127,-0.0211,-0.0212,0,0,0,0,0,0,0.0017,0.001,0.0023,0.0021,0.0013,-0.0002,-0.0003,0.0004,-0.0039,-0.0045,-0.0009,-0.001,-0.0078,-0.0085,-0.0092,-0.0114,-0.0125,-0.0128,-0.013,-0.0211,-0.0211,-0.0212,0,0,0,0,0,0,0.0017,0.0019,0.0024,0.0015,0.0014,-0.0001,0.0007,0.0004,-0.0001,-0.004,-0.0048,-0.001,-0.0078,-0.0088,-0.0117,-0.0117,-0.0129,-0.0132,-0.0211,-0.0211,-0.0212,-0.0155,0,0,0,0,0,0,0.0016,0.0019,0.0025,0.0016,0.0015,0.0023,0.0008,0.0004,-0.0,-0.0002,-0.0044,-0.0052,-0.0079,-0.0112,-0.012,-0.0122,-0.0135,-0.021,-0.0211,-0.0211,-0.0157,-0.0154,-0.0151,0,0,0,0,0,0.0016,0.003,0.0026,0.0027,0.0025,0.0023,0.0021,0.0007,0.0,0.0001,-0.0028,-0.0051,-0.0122,-0.0114,-0.0124,-0.0127,-0.021,-0.0211,-0.0211,-0.0158,-0.0154,-0.0151,0,0,0,0,0,0,0.0024,0.0029,0.0024,0.0038,0.0032,0.002,0.002,0.0011,-0.0009,-0.0013,-0.0052,-0.0062,-0.0089,-0.0117,-0.0108,-0.0154,-0.0171,-0.0174,-0.0127,-0.0124,-0.0121,-0.0113,-0.0137,0,0,0,0,0,0.003,0.0044,0.0038,0.0049,0.0047,0.0033,0.003,0.0024,0.0006,-0.0003,-0.0031,-0.0067,-0.0099,-0.0117,-0.0149,-0.0172,-0.0207,-0.0183,-0.018,-0.0177,-0.0178,-0.0231,-0.0232,-0.0214,-0.0214,-0.0214,0,0,0.0035,0.0041,0.0047,0.0052,0.0045,0.0046,0.0031,0.0032,0.0033,-0.0011,-0.0022,-0.0057,-0.0103,-0.0128,-0.0143,-0.0151,-0.0199,-0.0178,-0.0175,-0.0178,-0.0232,-0.0233,-0.0235,-0.0214,-0.0214,-0.0214,0,0,0.0054,0.0058,0.0072,0.007,0.0068,0.006,0.0063,0.0051,0.0046,0.0032,-0.0002,-0.0036,-0.0079,-0.0113,-0.0136,-0.0139,-0.0181,-0.0151,-0.0131,-0.0181,-0.0183,-0.0185,-0.0221,-0.0227,-0.015,-0.015,-0.015,0,0.0059,0.0078,0.0074,0.0084,0.0085,0.0068,0.0077,0.007,0.0052,0.0043,0.0035,-0.0039,-0.0073,-0.0114,-0.0113,-0.0132,-0.0164,-0.0136,-0.0176,-0.0179,-0.0182,-0.0219,-0.0226,-0.0148,-0.0148,-0.0148,-0.0148,0,0.0084,0.0097,0.0104,0.0113,0.0112,0.0119,0.0109,0.0106,0.0095,0.0079,0.0044,-0.0003,-0.0048,-0.0065,-0.0088,-0.0129,-0.0144,-0.0163,-0.018,-0.018,-0.0219,-0.0228,-0.0144,-0.0145,-0.0146,-0.0146,0,0,0.01,0.0119,0.0121,0.013,0.0129,0.0134,0.0136,0.0127,0.0128,0.0097,0.0082,0.0027,-0.0002,-0.0031,-0.007,-0.0114,-0.0155,-0.0142,-0.0146,-0.0169,-0.0259,-0.0238,-0.0245,-0.0181,-0.0183,-0.0184,-0.0273,0,0.0118,0.0145,0.015,0.017,0.0179,0.0169,0.0175,0.0165,0.0149,0.0131,0.0074,0.0046,0.0012,-0.0007,-0.0056,-0.0129,-0.0176,-0.0129,-0.0264,-0.0268,-0.0241,-0.0254,-0.0188,-0.028,-0.0282,-0.0283,-0.0284,0,0.0137,0.0155,0.0179,0.0201,0.0204,0.0216,0.0218,0.0221,0.0189,0.0177,0.0132,0.0089,0.0026,-0.0003,-0.013,-0.0097,-0.0174,-0.0234,-0.0239,-0.0246,-0.0262,-0.0285,-0.03,-0.0299,-0.0298,-0.0297,-0.0296,0,0.0144,0.0175,0.0197,0.0203,0.0222,0.0236,0.0244,0.023,0.0245,0.0203,0.0206,0.0114,0.008,-0.003,-0.014,-0.0141,-0.0283,-0.0301,-0.0359,-0.0358,-0.0375,-0.0372,-0.0404,-0.0404,-0.0403,-0.0403,-0.0403,0,0.0155,0.0173,0.0207,0.0218,0.0255,0.0257,0.0287,0.0284,0.0285,0.0307,0.0233,0.0226,0.0071,-0.0021,-0.0135,-0.0262,-0.0281,-0.0359,-0.0383,-0.0348,-0.0341,-0.038,-0.0376,-0.0406,-0.0406,-0.0405,-0.0405,0,0.0149,0.0169,0.0201,0.0239,0.0259,0.0282,0.0337,0.0359,0.0358,0.0385,0.0379,0.0302,0.0188,0.0035,-0.0149,-0.0238,-0.0374,-0.042,-0.0359,-0.0378,-0.0419,-0.0412,-0.0495,-0.0495,-0.0495,-0.0495,-0.0495,0,0.0146,0.0161,0.0221,0.0258,0.0281,0.0326,0.0366,0.0389,0.0426,0.044,0.0458,0.0361,0.0293,0.0065,-0.0116,-0.0342,-0.0376,-0.0451,-0.0449,-0.0415,-0.0431,-0.0423,-0.0415,-0.0495,-0.0495,-0.0495,-0.0495,0,0.0148,0.0171,0.0208,0.0286,0.0341,0.04,0.0463,0.0498,0.0534,0.0535,0.054,0.0426,0.0292,0.0091,-0.0088,-0.0252,-0.0404,-0.0452,-0.0453,-0.0453,-0.0417,-0.043,-0.0423,-0.0495,-0.0495,-0.0495,-0.0495,0,0.0163,0.0195,0.0261,0.0327,0.0399,0.0473,0.0492,0.0553,0.059,0.0614,0.0608,0.0473,0.0381,0.0138,-0.0024,-0.0185,-0.0232,-0.0287,-0.0298,-0.03,-0.022,-0.0144,-0.0161,0,0,0,0,0,0.0187,0.0241,0.0305,0.0391,0.0455,0.0499,0.0569,0.0585,0.0619,0.0643,0.0638,0.0525,0.0301,0.019,0.0035,-0.0055,-0.0284,-0.0246,-0.0359,-0.0496,-0.0496,-0.0433,0,0,0,0,0,0,0.0216,0.0282,0.0318,0.0434,0.0491,0.0574,0.0615,0.0631,0.0645,0.0653,0.0535,0.0488,0.0256,0.0399,0.0035,-0.0018,-0.0111,-0.0355,-0.0358,-0.0496,-0.0496,-0.0496,-0.0431,0,0,0,0,0]}]]